Molniya-1

operational
NORAD ID: 13012 Int'l Des: 1981-123 Owner: GUKOS Country: SU
MEOELLIPTICALHEO_ELLIPTICALSEMI_SYNCMOLNIYA

About Molniya-1

Description loading...

Live Position

Loading 3D Globe...

Upcoming Passes

Altitude History

Altitude vs Time

uPlot chart will show altitude changes over time

Two-Line Element Set

1 13012U 81123A 26049.07849089 -.00001237 00000-0 23643-3 0 9993
2 13012 61.6623 87.2366 7400732 274.1878 12.5530 2.00810333323492
Epoch: Feb 18, 2026 • Age: 16 hours

Current Status

Altitude 37758.3 km
Velocity 1.75 km/s
Sub-Earth Point 61.05°N, 107.22°E
Launch Date Dec 23, 1981
Age 44.1 years
Type other

Technical Details

Classification Payload
Mass 1650.00 kg
Dry Mass 1620.00 kg
Total Mass 1650.00 kg
Length 4.40 m
Diameter 1.40 m
Span 8.60 m
Shape Cyl + 6 Pan
Manufacturer NPOPM
Bus Type Molniya-1
Phase Status In Orbit
Owner/State GUKOS/SU

Large Constellations

Loading constellations...